[[{"header":{"parameterUnit":"m.s-1","parameterCategory":1,"la1":30.2991,"la2":30.254,"lo1":-89.0895,"lo2":-89.0444,"dy":0.0017,"dx":0.0017,"nx":28,"ny":28,"refTime":"2023-11-06T09:00:00:Z","depth":0,"parameterNumber":2,"parameterNumberName":"U-component_of_WINDS"},"data":[0,0,0,0,0,0,0,0,0,0,0,0,0,0,0,0,0,0,0,0,0,0,0,0,0,0,0,0,0,0,0,0,0,0,0,0,0,0,0,0,0,0,0,0,0,0,0,0,0,0,0,0,0,0,0,0,0,0,0.1,0.1,0,0.1008,0.1008,0.1008,0.101,0.101,0.101,0.101,0.1019,0.1019,0.102,0,0,0,0,0,0,0,0,0,0,0,0,0,0.0987,0.0987,0.1,0.1,0.1,0.1008,0.1008,0.1008,0.101,0.101,0.101,0.101,0.1019,0.1019,0.102,0,0,0,0,0,0,0,0,0,0,0,0,0,0.0993,0.0987,0.1,0.1002,0.1002,0.1008,0.1008,0.1009,0.101,0.101,0.101,0.101,0.1019,0.1019,0.102,0.1025,0,0,0.1021,0.1021,0,0,0,0,0,0,0,0,0.0993,0.0994,0.1002,0.1002,0.1002,0.1008,0.1007,0.1014,0.101,0.1007,0.101,0.101,0.1016,0.1016,0.1018,0.1025,0.1025,0.1021,0.1021,0.1022,0.1022,0,0,0,0,0,0,0,0.0992,0.0994,0.1003,0.1002,0.1002,0.1003,0.1004,0.1008,0.1012,0.1007,0.1008,0.1008,0.1016,0.1018,0.1018,0.1026,0.1021,0.1022,0.1022,0.1022,0.1037,0.1037,0,0,0,0,0,0,0.0992,0.0993,0.1003,0.1004,0.0997,0.1003,0.1004,0.1006,0.1012,0.1013,0.1009,0.1008,0.1017,0.1018,0.1019,0.1025,0.1022,0.1022,0.1022,0.1037,0.1037,0.1037,0,0,0,0,0,0,0.0991,0.0992,0.1003,0.0998,0.1,0.1003,0.1006,0.1006,0.1008,0.1013,0.1013,0.101,0.1017,0.1018,0.1023,0.1025,0.1022,0.1023,0.1037,0.1037,0.1037,0.1037,0,0,0,0,0,0,0.0991,0.0992,0.0994,0.0998,0.1,0.1007,0.1006,0.1007,0.1009,0.1009,0.1014,0.1015,0.1017,0.1022,0.1023,0.1026,0.1023,0.1037,0.1037,0.1037,0.1037,0.1037,0.1037,0,0,0,0,0,0.099,0.0994,0.0994,0.0995,0.1002,0.1007,0.1008,0.101,0.1009,0.1011,0.1014,0.1015,0.1025,0.1023,0.1024,0.1026,0.1036,0.1037,0.1037,0.1037,0.1037,0.1037,0,0,0,0,0,0,0.099,0.0995,0.0995,0.1,0.1003,0.1007,0.101,0.101,0.1014,0.1014,0.1017,0.1018,0.1023,0.1025,0.1023,0.1031,0.103,0.1031,0.103,0.103,0.103,0.103,0.1023,0,0,0,0,0,0.099,0.0994,0.0998,0.1002,0.1003,0.1006,0.1008,0.101,0.1013,0.1015,0.1018,0.1021,0.1025,0.1028,0.1032,0.1037,0.1038,0.1039,0.1039,0.104,0.104,0.1043,0.1044,0.1038,0.1038,0.1038,0,0,0.0992,0.0994,0.0996,0.1002,0.1004,0.1008,0.1007,0.1011,0.1014,0.1015,0.102,0.1022,0.1027,0.1032,0.1034,0.1034,0.1042,0.104,0.104,0.1041,0.1044,0.1044,0.1045,0.1038,0.1038,0.1038,0,0,0.0995,0.0998,0.1001,0.1004,0.1008,0.101,0.101,0.1014,0.1016,0.1021,0.1022,0.1025,0.1032,0.1035,0.1037,0.1042,0.1043,0.1043,0.1045,0.1048,0.1048,0.1049,0.105,0.1051,0.1044,0.1044,0.1044,0,0.0996,0.1002,0.1003,0.1007,0.1009,0.101,0.1014,0.1016,0.1021,0.1023,0.1022,0.1031,0.1034,0.104,0.1041,0.1043,0.1044,0.1043,0.1048,0.1048,0.1049,0.1051,0.1051,0.1044,0.1044,0.1044,0.1044,0,0.1003,0.1006,0.1009,0.1013,0.1015,0.1019,0.1022,0.1024,0.1025,0.1027,0.1032,0.1036,0.104,0.1042,0.1043,0.1048,0.1047,0.1047,0.1047,0.1049,0.1051,0.1052,0.1044,0.1044,0.1044,0.1044,0,0,0.1007,0.1012,0.1013,0.1015,0.1019,0.1022,0.1025,0.1029,0.1032,0.1035,0.1038,0.1044,0.1044,0.1046,0.1048,0.105,0.1054,0.105,0.105,0.1051,0.106,0.106,0.1061,0.1055,0.1055,0.1055,0.106,0,0.1011,0.1018,0.1019,0.1025,0.1028,0.1029,0.1032,0.1035,0.1037,0.104,0.1043,0.1047,0.1046,0.1048,0.105,0.1053,0.1056,0.1053,0.1058,0.1058,0.1057,0.1062,0.1062,0.1066,0.106,0.106,0.1061,0,0.1017,0.102,0.1026,0.103,0.1031,0.1034,0.1038,0.1041,0.1044,0.1046,0.1048,0.105,0.1054,0.1053,0.1059,0.1056,0.1059,0.106,0.106,0.1061,0.106,0.1063,0.1068,0.1069,0.1062,0.1061,0.1061,0,0.102,0.1025,0.103,0.1031,0.1036,0.1038,0.1039,0.1043,0.1045,0.1049,0.105,0.1054,0.1056,0.106,0.1062,0.1061,0.1068,0.1067,0.1069,0.1069,0.1071,0.1071,0.1077,0.1072,0.1072,0.1072,0.1072,0,0.1025,0.1028,0.1031,0.1033,0.1038,0.1039,0.1043,0.1045,0.1048,0.1051,0.1053,0.1056,0.1058,0.1062,0.1064,0.1069,0.107,0.1071,0.1071,0.1071,0.1071,0.1073,0.1073,0.1072,0.1072,0.1072,0.1072,0,0.1029,0.103,0.1035,0.1038,0.1039,0.1042,0.1045,0.1048,0.105,0.1054,0.1055,0.1058,0.1062,0.1065,0.107,0.1071,0.1077,0.1077,0.1075,0.1076,0.1078,0.1078,0.1086,0.1087,0.1081,0.1081,0.1081,0,0.1032,0.1034,0.1038,0.104,0.1042,0.1045,0.1047,0.1049,0.1052,0.1056,0.1058,0.1062,0.1065,0.1072,0.1075,0.1079,0.108,0.1082,0.108,0.108,0.108,0.108,0.108,0.1082,0.1083,0.1083,0.1083,0,0.1037,0.1038,0.1041,0.1044,0.1047,0.1049,0.1052,0.1054,0.1056,0.1059,0.1063,0.1066,0.1071,0.1075,0.108,0.1082,0.1083,0.1083,0.1084,0.1084,0.1083,0.1083,0.1076,0.1083,0.1083,0.1083,0.1083,0.1083,0.1041,0.1043,0.1046,0.1049,0.1051,0.1054,0.1057,0.1059,0.1062,0.1066,0.1067,0.1071,0.1075,0.1081,0.1083,0.1087,0.1087,0.1088,0.1088,0.1089,0.1089,0.1082,0.1088,0.1088,0.1088,0.1088,0.1088,0,0.1046,0.1048,0.1051,0.1055,0.1057,0.1057,0.1061,0.1063,0.1067,0.107,0.1073,0.1078,0.1082,0.1085,0.1089,0.1091,0.1092,0.1092,0.1092,0.1093,0.1089,0.1088,0.1092,0.1092,0.1092,0.1092,0.1092,0.1092,0.1049,0.1054,0.1054,0.106,0.1062,0.1066,0.1067,0.107,0.1072,0.1077,0.1081,0.1082,0.1085,0.109,0.1094,0.1095,0.1096,0.1097,0.1098,0.1094,0.1093,0.1093,0.1092,0.1097,0.1097,0.1102,0.1102,0.1102]},{"header":{"parameterUnit":"m.s-1","parameterCategory":1,"la1":30.2991,"la2":30.254,"lo1":-89.0895,"lo2":-89.0444,"dy":0.0017,"dx":0.0017,"nx":28,"ny":28,"refTime":"2023-11-06T09:00:00:Z","depth":0,"parameterNumber":3,"parameterNumberName":"V-component_of_WINDS"},"data":[0,0,0,0,0,0,0,0,0,0,0,0,0,0,0,0,0,0,0,0,0,0,0,0,0,0,0,0,0,0,0,0,0,0,0,0,0,0,0,0,0,0,0,0,0,0,0,0,0,0,0,0,0,0,0,0,0,0,-0.5166,-0.5167,0,-0.5219,-0.5219,-0.522,-0.5235,-0.5235,-0.5235,-0.5235,-0.5288,-0.529,-0.5291,0,0,0,0,0,0,0,0,0,0,0,0,0,-0.508,-0.5081,-0.5166,-0.5167,-0.5167,-0.5218,-0.5219,-0.522,-0.5235,-0.5235,-0.5235,-0.5235,-0.5288,-0.529,-0.5292,0,0,0,0,0,0,0,0,0,0,0,0,0,-0.5123,-0.5082,-0.5166,-0.5181,-0.5183,-0.5218,-0.5219,-0.522,-0.5236,-0.5235,-0.5235,-0.5234,-0.5287,-0.5289,-0.5292,-0.5315,0,0,-0.53,-0.5301,0,0,0,0,0,0,0,0,-0.5121,-0.5126,-0.5178,-0.518,-0.5183,-0.522,-0.5208,-0.5252,-0.5236,-0.5216,-0.5235,-0.5234,-0.5266,-0.527,-0.5281,-0.5318,-0.532,-0.53,-0.5301,-0.5302,-0.5303,0,0,0,0,0,0,0,-0.5118,-0.5124,-0.5187,-0.5179,-0.5182,-0.5186,-0.5191,-0.5217,-0.5242,-0.5217,-0.5219,-0.5225,-0.5267,-0.5278,-0.5282,-0.5321,-0.53,-0.5302,-0.5303,-0.5304,-0.538,-0.538,0,0,0,0,0,0,-0.5112,-0.5121,-0.5185,-0.5188,-0.515,-0.5187,-0.5194,-0.5208,-0.5242,-0.5247,-0.5225,-0.5225,-0.5274,-0.5279,-0.5284,-0.5314,-0.5302,-0.5305,-0.5306,-0.5379,-0.538,-0.5381,0,0,0,0,0,0,-0.511,-0.5117,-0.5183,-0.5155,-0.5164,-0.5189,-0.5206,-0.521,-0.5221,-0.5248,-0.5252,-0.5232,-0.5274,-0.5281,-0.5307,-0.5316,-0.5306,-0.5308,-0.5379,-0.538,-0.538,-0.5373,0,0,0,0,0,0,-0.5107,-0.5117,-0.5126,-0.5155,-0.5165,-0.5206,-0.5206,-0.5211,-0.5225,-0.5226,-0.5256,-0.526,-0.5274,-0.5304,-0.531,-0.5319,-0.531,-0.5378,-0.5379,-0.538,-0.5373,-0.5374,-0.5375,0,0,0,0,0,-0.5104,-0.5122,-0.5126,-0.5134,-0.5177,-0.5206,-0.5212,-0.5228,-0.5226,-0.5236,-0.5253,-0.5259,-0.5314,-0.5306,-0.5314,-0.5324,-0.5378,-0.5379,-0.538,-0.5373,-0.5374,-0.5375,0,0,0,0,0,0,-0.5093,-0.5126,-0.5131,-0.5159,-0.518,-0.5209,-0.5221,-0.5228,-0.525,-0.525,-0.5269,-0.5275,-0.5301,-0.5315,-0.5306,-0.5348,-0.5346,-0.5349,-0.5338,-0.5339,-0.534,-0.5336,-0.5312,0,0,0,0,0,-0.5093,-0.5114,-0.5142,-0.5164,-0.5174,-0.5196,-0.5209,-0.5219,-0.5241,-0.525,-0.5269,-0.529,-0.5312,-0.5327,-0.5348,-0.5375,-0.5382,-0.5386,-0.5386,-0.5387,-0.5389,-0.5404,-0.5406,-0.5384,-0.5384,-0.5384,0,0,-0.5095,-0.5116,-0.5127,-0.5162,-0.5179,-0.52,-0.5203,-0.5225,-0.524,-0.5253,-0.528,-0.5295,-0.532,-0.5347,-0.536,-0.5359,-0.5396,-0.5388,-0.5388,-0.539,-0.5406,-0.5408,-0.5409,-0.5385,-0.5385,-0.5385,0,0,-0.5109,-0.5126,-0.5146,-0.5163,-0.519,-0.5204,-0.5209,-0.5237,-0.5247,-0.5274,-0.5284,-0.5303,-0.5341,-0.5358,-0.5372,-0.5392,-0.5398,-0.5398,-0.5402,-0.5417,-0.5419,-0.542,-0.5427,-0.543,-0.54,-0.54,-0.54,0,-0.5107,-0.5139,-0.5156,-0.5177,-0.5192,-0.5205,-0.5225,-0.5241,-0.5273,-0.5283,-0.5282,-0.5329,-0.5347,-0.5378,-0.5383,-0.5393,-0.5399,-0.5395,-0.5417,-0.5419,-0.5421,-0.5428,-0.543,-0.54,-0.54,-0.54,-0.54,0,-0.5136,-0.5158,-0.5171,-0.5202,-0.5218,-0.5239,-0.5258,-0.5273,-0.5282,-0.5296,-0.5323,-0.5345,-0.5371,-0.5379,-0.5388,-0.5412,-0.5411,-0.5413,-0.5412,-0.5422,-0.5429,-0.5432,-0.54,-0.54,-0.54,-0.54,0,0,-0.5144,-0.5184,-0.5188,-0.5202,-0.5232,-0.5249,-0.527,-0.5296,-0.5308,-0.5329,-0.5347,-0.5379,-0.5381,-0.5397,-0.5408,-0.542,-0.5435,-0.5421,-0.5422,-0.5423,-0.5462,-0.546,-0.5463,-0.5439,-0.544,-0.544,-0.546,0,-0.5162,-0.5201,-0.5216,-0.5247,-0.5268,-0.528,-0.5299,-0.5319,-0.5333,-0.5352,-0.5367,-0.5389,-0.5391,-0.54,-0.5413,-0.543,-0.5443,-0.5429,-0.5457,-0.5457,-0.545,-0.5467,-0.5465,-0.5482,-0.5463,-0.5463,-0.5464,0,-0.5188,-0.5209,-0.5243,-0.527,-0.5279,-0.5295,-0.532,-0.5338,-0.5361,-0.537,-0.5388,-0.5398,-0.5421,-0.5417,-0.5449,-0.5439,-0.5451,-0.5461,-0.5462,-0.5465,-0.5461,-0.547,-0.5488,-0.5491,-0.5468,-0.5468,-0.5467,0,-0.5191,-0.5228,-0.5253,-0.5264,-0.5296,-0.5307,-0.5321,-0.5344,-0.5358,-0.538,-0.5389,-0.5413,-0.5426,-0.5444,-0.5461,-0.5457,-0.5491,-0.5489,-0.5499,-0.5499,-0.5506,-0.5505,-0.5526,-0.5513,-0.5513,-0.5513,-0.5513,0,-0.5209,-0.5229,-0.5254,-0.527,-0.5292,-0.531,-0.5332,-0.5346,-0.5366,-0.5384,-0.5396,-0.5413,-0.5434,-0.5453,-0.5466,-0.549,-0.5496,-0.5504,-0.5507,-0.5503,-0.5502,-0.5512,-0.5511,-0.5514,-0.5514,-0.5514,-0.5513,0,-0.5216,-0.5234,-0.5262,-0.529,-0.5297,-0.5313,-0.5336,-0.5352,-0.5366,-0.5389,-0.5395,-0.5418,-0.5441,-0.5459,-0.549,-0.5499,-0.5524,-0.5528,-0.5516,-0.5518,-0.5528,-0.5526,-0.5555,-0.556,-0.5544,-0.5544,-0.5544,0,-0.5226,-0.5242,-0.5272,-0.5285,-0.5298,-0.5319,-0.5334,-0.5352,-0.5366,-0.5394,-0.5405,-0.543,-0.545,-0.5487,-0.5506,-0.553,-0.5534,-0.5542,-0.5537,-0.5533,-0.5534,-0.5533,-0.5535,-0.5543,-0.5543,-0.5543,-0.5543,0,-0.5243,-0.5251,-0.5272,-0.5296,-0.5313,-0.5333,-0.5353,-0.5363,-0.5384,-0.54,-0.5424,-0.544,-0.5471,-0.5495,-0.552,-0.5534,-0.5542,-0.5544,-0.5548,-0.5544,-0.5537,-0.5541,-0.5518,-0.5544,-0.5543,-0.5543,-0.5543,-0.5543,-0.5253,-0.5267,-0.529,-0.5313,-0.533,-0.5348,-0.5364,-0.538,-0.54,-0.5427,-0.5436,-0.5461,-0.5483,-0.5518,-0.5532,-0.5552,-0.5552,-0.5557,-0.5559,-0.556,-0.5559,-0.5533,-0.5556,-0.5556,-0.5556,-0.5556,-0.5556,0,-0.5271,-0.5286,-0.5306,-0.5334,-0.5352,-0.5357,-0.5379,-0.5394,-0.5416,-0.5436,-0.5456,-0.5483,-0.5506,-0.5527,-0.5551,-0.5563,-0.5567,-0.5569,-0.5568,-0.5571,-0.5558,-0.5552,-0.5565,-0.5565,-0.5565,-0.5565,-0.5565,-0.5565,-0.5282,-0.5307,-0.5317,-0.535,-0.5366,-0.539,-0.5402,-0.5419,-0.5435,-0.5465,-0.5485,-0.5498,-0.5518,-0.5544,-0.5565,-0.5571,-0.5579,-0.558,-0.5586,-0.5573,-0.5572,-0.5571,-0.5566,-0.5581,-0.5581,-0.5598,-0.5598,-0.5598]}]]